TimeCDT,TemperatureF,Dew PointF,Humidity,Sea Level PressureIn,VisibilityMPH,Wind Direction,Wind SpeedMPH,Gust SpeedMPH,PrecipitationIn,Events,Conditions,WindDirDegrees,DateUTC
12:15 AM,66.2,62.6,88,29.97,10.0,South,5.8,-,N/A,,Mostly Cloudy,190,2013-05-11 05:15:00
12:35 AM,66.2,62.6,88,29.96,10.0,SW,4.6,-,N/A,,Mostly Cloudy,220,2013-05-11 05:35:00
12:55 AM,66.2,62.6,88,29.94,10.0,South,5.8,-,N/A,,Scattered Clouds,190,2013-05-11 05:55:00
1:15 AM,66.2,62.6,88,29.95,10.0,WSW,4.6,-,N/A,,Partly Cloudy,240,2013-05-11 06:15:00
1:35 AM,66.2,62.6,88,29.96,10.0,Calm,Calm,-,N/A,,Clear,0,2013-05-11 06:35:00
1:55 AM,66.2,62.6,88,29.95,10.0,WSW,3.5,-,N/A,,Clear,240,2013-05-11 06:55:00
2:15 AM,66.2,62.6,88,29.95,10.0,Calm,Calm,-,N/A,,Clear,0,2013-05-11 07:15:00
2:35 AM,64.4,60.8,88,29.95,10.0,Calm,Calm,-,N/A,,Clear,0,2013-05-11 07:35:00
2:55 AM,64.4,60.8,88,29.95,10.0,Calm,Calm,-,N/A,,Clear,0,2013-05-11 07:55:00
3:15 AM,64.4,60.8,88,29.94,10.0,Calm,Calm,-,N/A,,Clear,0,2013-05-11 08:15:00
3:35 AM,62.6,60.8,94,29.95,1.8,Calm,Calm,-,N/A,,Clear,0,2013-05-11 08:35:00
3:55 AM,62.6,60.8,94,29.94,2.0,Calm,Calm,-,N/A,,Clear,0,2013-05-11 08:55:00
4:15 AM,62.6,60.8,94,29.94,5.0,Calm,Calm,-,N/A,,Mostly Cloudy,0,2013-05-11 09:15:00
4:35 AM,64.4,60.8,88,29.95,10.0,Calm,Calm,-,N/A,,Overcast,0,2013-05-11 09:35:00
4:55 AM,64.4,60.8,88,29.95,10.0,Calm,Calm,-,N/A,,Overcast,0,2013-05-11 09:55:00
5:15 AM,64.4,60.8,88,29.97,10.0,SW,3.5,-,N/A,,Overcast,230,2013-05-11 10:15:00
5:35 AM,64.4,60.8,88,29.96,10.0,Calm,Calm,-,N/A,,Scattered Clouds,0,2013-05-11 10:35:00
5:50 AM,64.4,60.8,88,29.95,10.0,Calm,Calm,-,N/A,,Scattered Clouds,0,2013-05-11 10:50:00
6:55 AM,64.4,60.8,88,29.96,7.0,Calm,Calm,-,N/A,,Overcast,0,2013-05-11 11:55:00
7:55 AM,64.4,60.8,88,29.99,7.0,West,6.9,-,N/A,,Overcast,280,2013-05-11 12:55:00
8:50 AM,66.2,60.8,83,29.99,10.0,NW,4.6,-,N/A,,Overcast,310,2013-05-11 13:50:00
9:50 AM,69.8,62.6,78,29.99,10.0,Calm,Calm,-,N/A,,Mostly Cloudy,0,2013-05-11 14:50:00
10:50 AM,69.8,62.6,78,30.00,10.0,North,6.9,-,N/A,,Overcast,360,2013-05-11 15:50:00
11:50 AM,69.8,60.8,73,30.01,10.0,NW,6.9,-,N/A,,Overcast,320,2013-05-11 16:50:00
12:50 PM,71.6,62.6,73,30.00,10.0,NNW,4.6,-,N/A,,Mostly Cloudy,330,2013-05-11 17:50:00
1:45 PM,77.0,62.6,61,29.99,10.0,West,3.5,-,N/A,,Mostly Cloudy,270,2013-05-11 18:45:00
3:45 PM,73.4,62.6,69,29.97,10.0,NNW,8.1,-,N/A,,Mostly Cloudy,330,2013-05-11 20:45:00
4:45 PM,75.2,60.8,61,29.96,10.0,NNW,12.7,-,N/A,,Mostly Cloudy,340,2013-05-11 21:45:00
5:45 PM,75.2,59.0,57,29.97,10.0,NNW,11.5,-,N/A,,Scattered Clouds,330,2013-05-11 22:45:00
6:45 PM,73.4,57.2,57,29.97,10.0,NW,9.2,-,N/A,,Partly Cloudy,320,2013-05-11 23:45:00
7:45 PM,68.0,57.2,68,29.99,10.0,NW,5.8,-,N/A,,Clear,310,2013-05-12 00:45:00
8:15 PM,66.2,57.2,73,30.00,10.0,NW,4.6,-,N/A,,Clear,310,2013-05-12 01:15:00
8:35 PM,66.2,57.2,73,30.01,10.0,NW,3.5,-,N/A,,Clear,310,2013-05-12 01:35:00
8:55 PM,66.2,57.2,73,30.02,10.0,NW,3.5,-,N/A,,Clear,310,2013-05-12 01:55:00
9:15 PM,64.4,57.2,77,30.03,10.0,NNW,4.6,-,N/A,,Clear,340,2013-05-12 02:15:00
9:35 PM,64.4,55.4,73,30.04,10.0,NW,4.6,-,N/A,,Clear,310,2013-05-12 02:35:00
9:55 PM,62.6,55.4,77,30.05,10.0,NW,4.6,-,N/A,,Clear,310,2013-05-12 02:55:00
10:15 PM,62.6,55.4,77,30.05,10.0,NW,5.8,-,N/A,,Clear,320,2013-05-12 03:15:00
10:35 PM,62.6,55.4,77,30.06,10.0,NW,4.6,-,N/A,,Clear,320,2013-05-12 03:35:00
10:55 PM,62.6,55.4,77,30.06,10.0,NW,6.9,-,N/A,,Clear,310,2013-05-12 03:55:00
11:15 PM,60.8,53.6,77,30.05,10.0,NW,6.9,-,N/A,,Clear,310,2013-05-12 04:15:00
11:35 PM,60.8,53.6,77,30.05,10.0,NW,5.8,-,N/A,,Clear,310,2013-05-12 04:35:00
11:55 PM,60.8,53.6,77,30.05,10.0,NW,6.9,-,N/A,,Clear,310,2013-05-12 04:55:00